Tracking 22836 objects as of 18-Apr-2021
HD Live streaming from Space Station
objects crossing your sky now

DELTA 1 DEB

Track DELTA 1 DEB now!
10-day predictions


NORAD ID: 7053
Int'l Code: 1973-086AV
Perigee: 1,446.1 km
Apogee: 1,512.5 km
Inclination: 101.9 °
Period: 115.4 minutes
Semi major axis: 7850 km
RCS: 0.1024 m2 (medium)
Launch date: November 6, 1973
Source: United States (US)
Launch site: AIR FORCE WESTERN TEST RANGE (AFWTR)

Note: This is SATELLITE DEBRIS
aabbcc
Your satellite tracking list
Your tracking list is empty




NASA's NSSDC Master Catalog

Two Line Element Set (TLE):
1 07053U 73086AV  21107.41820782  .00000059  00000-0  70400-3 0  9990
2 07053 101.9019 181.6967 0042275 295.6182 125.3337 12.48167246158806
Source of the keplerian elements: AFSPC